Reno, NV

8:18 AM PDT on April 23, 2018 (GMT -0700)
Reno-Tahoe International

Weather History for KRNO - January, 2014

Change the Weather History Date:

Friday, January 10, 2014

  Actual Average Record
Temperature  
Mean Temperature 43 °F 35 °F  
Max Temperature 56 °F 45 °F 63 °F (1990)
Min Temperature 29 °F 25 °F -6 °F (1890)
Degree Days  
Heating Degree Days 22 30  
Month to date heating degree days 266 302  
Since 1 July heating degree days 2500 2326  
Cooling Degree Days 0 0  
Month to date cooling degree days 0 0  
Year to date cooling degree days 0 0  
Moisture  
Dew Point 30 °F    
Average Humidity 65    
Maximum Humidity 92    
Minimum Humidity 38    
Precipitation  
Precipitation 0.00 in 0.04 in 1.55 in (1995)
Month to date precipitation 0.00 0.37  
Year to date precipitation 0.00 0.37  
Snow  
Snow 0.00 in 0.30 in 9.70 in (1916)
Month to date snowfall 0.0 2.4  
Since 1 July snowfall 4.7 10.8  
Snow Depth 0.00 in    
Sea Level Pressure  
Sea Level Pressure 30.23 in    
Wind  
Wind Speed 2 mph (South)    
Max Wind Speed 14 mph    
Max Gust Speed 16 mph    
Visibility 10 miles    
Events      
T = Trace of Precipitation, MM = Missing Value Source: NWS Daily Summary

Daily Weather History Graph

Daily Weather History Graph

Search for Another Location

Airport or City:

Astronomy

Jan. 10, 2014 Rise Set
Actual Time 7:19 AM PST 4:54 PM PST
Civil Twilight 6:49 AM PST 5:24 PM PST
Nautical Twilight 6:16 AM PST 5:57 PM PST
Astronomical Twilight 5:43 AM PST 6:30 PM PST
Moon 1:01 PM PST (1/10) 2:31 AM PST (1/10)
Length of Visible Light 10h 34m
Length of Day
9h 35m
Waxing Gibbous, 76% of the Moon is Illuminated
Jan 10
Waxing Gibbous
Jan 15
Full
Jan 23
Last Quarter
Jan 30
New
Feb 6
First Quarter

Hourly Weather History & Observations

Time (PST) Temp. Windchill Dew Point Humidity Pressure Visibility Wind Dir Wind Speed Gust Speed Precip Events Conditions
12:55 AM 37.9 °F 32.7 °F 30.9 °F 76% 30.15 in 10.0 mi SSW 6.9 mph - N/A   Partly Cloudy
1:55 AM 36.0 °F - 30.0 °F 79% 30.16 in 10.0 mi Calm Calm - N/A   Partly Cloudy
2:55 AM 34.0 °F 31.0 °F 28.9 °F 82% 30.16 in 10.0 mi South 3.5 mph - N/A   Clear
3:55 AM 33.1 °F - 28.9 °F 85% 30.18 in 10.0 mi Calm Calm - N/A   Clear
4:55 AM 30.0 °F 25.2 °F 27.0 °F 88% 30.20 in 10.0 mi SE 4.6 mph - N/A   Clear
5:55 AM 30.0 °F - 27.0 °F 88% 30.22 in 10.0 mi Calm Calm - N/A   Clear
6:55 AM 32.0 °F - 28.0 °F 85% 30.23 in 10.0 mi Calm Calm - N/A   Scattered Clouds
7:55 AM 28.9 °F 23.9 °F 27.0 °F 92% 30.26 in 10.0 mi SSE 4.6 mph - N/A   Mostly Cloudy
8:55 AM 32.0 °F - 28.9 °F 88% 30.28 in 10.0 mi Calm Calm - N/A   Overcast
9:55 AM 39.0 °F - 30.9 °F 73% 30.29 in 10.0 mi Calm Calm - N/A   Overcast
10:55 AM 44.1 °F 42.5 °F 32.0 °F 63% 30.29 in 10.0 mi SW 3.5 mph - N/A   Overcast
11:55 AM 50.0 °F - 30.9 °F 48% 30.25 in 10.0 mi Variable 3.5 mph - N/A   Overcast
12:55 PM 52.0 °F - 30.9 °F 45% 30.21 in 10.0 mi ESE 4.6 mph - N/A   Overcast
1:55 PM 55.0 °F - 30.9 °F 40% 30.19 in 10.0 mi Calm Calm - N/A   Overcast
2:55 PM 55.0 °F - 30.9 °F 40% 30.19 in 10.0 mi NE 4.6 mph - N/A   Overcast
3:55 PM 54.0 °F - 30.9 °F 41% 30.21 in 10.0 mi Calm Calm - N/A   Overcast
4:55 PM 52.0 °F - 32.0 °F 47% 30.22 in 10.0 mi Calm Calm - N/A   Overcast
5:55 PM 46.9 °F - 30.9 °F 54% 30.22 in 10.0 mi SSW 4.6 mph - N/A   Overcast
6:55 PM 46.0 °F 44.8 °F 30.9 °F 56% 30.24 in 10.0 mi SSE 3.5 mph - N/A   Mostly Cloudy
7:55 PM 43.0 °F 41.3 °F 30.9 °F 62% 30.27 in 10.0 mi SW 3.5 mph - N/A   Mostly Cloudy
8:55 PM 42.1 °F - 30.0 °F 62% 30.26 in 10.0 mi Calm Calm - N/A   Mostly Cloudy
9:55 PM 39.0 °F - 30.0 °F 70% 30.25 in 10.0 mi Calm Calm - N/A   Mostly Cloudy
10:55 PM 37.0 °F - 28.9 °F 73% 30.23 in 10.0 mi Calm Calm - N/A   Mostly Cloudy
11:55 PM 35.1 °F - 28.9 °F 78% 30.21 in 10.0 mi Calm Calm - N/A   Scattered Clouds